EW8578 Stord NO current weather conditions

sailwx.info

Wind from 145 at 4 knots gusting 7

Air temperature 7.2° C
Dewpoint 5.4° C

Last reported at 2019-Dec-06 02:05 UTC.
Time now 2019-Dec-06 03:14 UTC

Location: N 59°54' E 005°46'.
View on Google Maps.

See reports from other nearby stations

  
Tides and Currents Weather Stations Pressure Air Temp Water Temp Dewpoint Dewpoint Depression Visibility Wind Speed Wind Dir Waves Ship Positions
date/time (UTC)wind fromknots sea level pressurealtimeterstation pressurevisibilityair tempwater tempwave heightnotes
2019-Dec-06 02:05 145 4 gusting 7 7.2
2019-Dec-06 02:00 163 4 gusting 7 7.2
2019-Dec-06 01:50 127 5 gusting 7 7.2
2019-Dec-06 01:45 145 4 gusting 8 7.2
2019-Dec-06 01:40 144 3 gusting 9 7.2
2019-Dec-06 01:35 122 5 gusting 9 6.7
2019-Dec-06 01:25 134 5 gusting 7 6.7
2019-Dec-06 01:20 109 2 gusting 6 6.7
2019-Dec-06 01:10 137 2 gusting 7 6.7
2019-Dec-06 01:05 165 3 gusting 6 7.2
2019-Dec-06 00:55 136 5 gusting 9 7.2
2019-Dec-06 00:50 163 4 gusting 11 7.2
2019-Dec-06 00:45 200 6 gusting 11 7.2
2019-Dec-06 00:40 202 3 gusting 10 7.2
2019-Dec-06 00:35 196 4 gusting 9 7.2
2019-Dec-06 00:30 150 6 gusting 10 7.2
2019-Dec-06 00:25 176 5 gusting 12 7.2
2019-Dec-06 00:20 178 6 gusting 12 7.2
2019-Dec-06 00:15 172 7 gusting 12 7.2
2019-Dec-06 00:10 215 6 gusting 13 7.2
2019-Dec-06 00:05 180 4 gusting 16 7.2
2019-Dec-06 00:00 174 6 gusting 16 7.2
2019-Dec-05 23:55 174 8 gusting 13 7.2
2019-Dec-05 23:50 183 7 gusting 13 7.2
2019-Dec-05 23:45 173 6 gusting 13 7.2
2019-Dec-05 23:40 188 6 gusting 13 7.2
2019-Dec-05 23:35 166 6 gusting 14 7.2
2019-Dec-05 23:30 161 6 gusting 14 7.2
2019-Dec-05 23:25 134 8 gusting 16 7.2
2019-Dec-05 23:20 156 8 gusting 19 7.2
2019-Dec-05 23:15 185 11 gusting 19 7.2
2019-Dec-05 23:06 170 10 gusting 19 7.2
2019-Dec-05 23:01 200 9 gusting 21 6.7
2019-Dec-05 22:55 165 6 gusting 21 6.7
2019-Dec-05 22:50 168 9 gusting 18 6.7
2019-Dec-05 22:46 175 9 gusting 18 6.7
2019-Dec-05 22:40 198 6 gusting 13 6.7
2019-Dec-05 22:35 179 7 gusting 18 6.7
2019-Dec-05 22:32 159 9 gusting 24 6.7
2019-Dec-05 22:26 144 9 gusting 24 6.7
2019-Dec-05 22:20 197 9 gusting 22 6.7
2019-Dec-05 22:16 152 14 gusting 22 6.7
2019-Dec-05 22:10 204 12 gusting 25 6.7
2019-Dec-05 22:05 132 11 gusting 25 6.7
2019-Dec-05 22:02 144 10 gusting 24 6.7
2019-Dec-05 21:55 154 11 gusting 24 6.7
2019-Dec-05 21:50 162 10 gusting 24 6.7
2019-Dec-05 21:46 189 12 gusting 20 6.7
2019-Dec-05 21:40 150 13 gusting 21 6.7
2019-Dec-05 21:35 193 12 gusting 21 6.1
2019-Dec-05 21:31 200 11 gusting 20 6.1
2019-Dec-05 21:25 198 8 gusting 19 6.7
2019-Dec-05 21:20 179 8 gusting 20 6.1
2019-Dec-05 21:16 180 11 gusting 20 6.1
2019-Dec-05 21:10 175 10 gusting 19 6.1
2019-Dec-05 21:05 155 13 gusting 19 6.1
2019-Dec-05 21:00 196 11 gusting 20 6.1
2019-Dec-05 20:55 140 12 gusting 21 6.1
2019-Dec-05 20:50 186 13 gusting 21 6.1
2019-Dec-05 20:46 209 12 gusting 19 6.1
2019-Dec-05 20:40 190 11 gusting 19 6.1
2019-Dec-05 20:35 202 11 gusting 19 6.1
2019-Dec-05 20:31 194 11 gusting 19 6.1
2019-Dec-05 20:25 195 10 gusting 19 6.1
2019-Dec-05 20:20 196 13 gusting 21 6.7
2019-Dec-05 20:16 184 13 gusting 25 6.7
2019-Dec-05 20:10 204 13 gusting 25 6.7
2019-Dec-05 20:05 180 14 gusting 20 6.7
2019-Dec-05 20:01 214 13 gusting 19 6.7
2019-Dec-05 19:55 204 11 gusting 23 6.7
2019-Dec-05 19:50 211 13 gusting 23 6.7
2019-Dec-05 19:46 175 13 gusting 23 6.7
2019-Dec-05 19:40 184 13 gusting 23 6.7
2019-Dec-05 19:35 200 12 gusting 23 6.7
2019-Dec-05 19:30 189 11 gusting 19 6.7
2019-Dec-05 19:25 180 10 gusting 19 6.7
2019-Dec-05 19:20 168 13 gusting 20 6.7
2019-Dec-05 19:16 141 12 gusting 20 6.7
2019-Dec-05 19:10 171 11 gusting 19 6.7
2019-Dec-05 19:05 183 11 gusting 19 7.2
2019-Dec-05 19:00 215 10 gusting 19 7.2
2019-Dec-05 18:55 209 13 gusting 25 7.2
2019-Dec-05 18:50 172 17 gusting 23 7.2
2019-Dec-05 18:45 191 14 gusting 22 7.2
2019-Dec-05 18:40 184 11 gusting 18 7.2
2019-Dec-05 18:35 192 10 gusting 18 7.2
2019-Dec-05 18:31 194 11 gusting 26 7.2
2019-Dec-05 18:25 202 13 gusting 26 7.2
2019-Dec-05 18:20 178 15 gusting 22 7.2
2019-Dec-05 18:16 187 13 gusting 22 7.2
2019-Dec-05 18:10 169 15 gusting 23 7.2
2019-Dec-05 18:05 175 13 gusting 23 7.2
2019-Dec-05 18:00 182 17 gusting 23 7.2
2019-Dec-05 17:55 176 15 gusting 24 7.2
2019-Dec-05 17:50 183 13 gusting 24 7.2
2019-Dec-05 17:45 186 15 gusting 24 7.2
2019-Dec-05 17:40 196 13 gusting 26 7.2
2019-Dec-05 17:35 182 13 gusting 26 7.2
2019-Dec-05 17:25 164 14 gusting 28 7.2
2019-Dec-05 17:20 190 14 gusting 26 7.2
2019-Dec-05 17:15 154 13 gusting 25 7.2
2019-Dec-05 17:10 179 14 gusting 27 7.2
2019-Dec-05 17:00 184 18 gusting 25 7.2
2019-Dec-05 16:50 212 12 gusting 23 7.2
2019-Dec-05 16:45 171 15 gusting 26 7.2
2019-Dec-05 16:40 163 17 gusting 26 7.2
2019-Dec-05 16:35 188 14 gusting 29 7.2
2019-Dec-05 16:25 155 17 gusting 28 7.2
2019-Dec-05 16:20 206 16 gusting 33 7.2
2019-Dec-05 16:15 199 16 gusting 33 7.2
2019-Dec-05 16:10 182 15 gusting 26 7.2
2019-Dec-05 16:05 197 17 gusting 26 7.2
2019-Dec-05 15:55 191 17 gusting 27 7.2
2019-Dec-05 15:50 189 15 gusting 27 7.2
2019-Dec-05 15:45 200 14 gusting 27 7.8
2019-Dec-05 15:35 172 15 gusting 24 7.8
2019-Dec-05 15:31 171 17 gusting 32 7.8
2019-Dec-05 15:26 220 18 gusting 35 7.8
2019-Dec-05 15:20 206 17 gusting 28 7.8
2019-Dec-05 15:17 195 15 gusting 26 7.2
2019-Dec-05 15:10 165 15 gusting 23 7.8
2019-Dec-05 15:05 176 13 gusting 26 7.8
2019-Dec-05 15:01 212 14 gusting 26 7.8
2019-Dec-05 14:55 212 15 gusting 26 7.8
2019-Dec-05 14:50 171 16 gusting 26 7.2
2019-Dec-05 14:47 184 13 gusting 26 7.8
2019-Dec-05 14:40 154 14 gusting 26 7.2
2019-Dec-05 14:35 202 12 gusting 28 7.2
2019-Dec-05 14:31 203 15 gusting 28 7.2
2019-Dec-05 14:26 190 14 gusting 24 7.2
2019-Dec-05 14:21 198 16 gusting 26 7.2
2019-Dec-05 14:16 194 16 gusting 26 7.2
2019-Dec-05 14:10 219 16 gusting 26 7.2
2019-Dec-05 14:05 183 15 gusting 27 7.8
2019-Dec-05 14:01 186 16 gusting 27 7.8
2019-Dec-05 13:55 184 16 gusting 26 7.8
2019-Dec-05 13:50 194 13 gusting 26 7.8
2019-Dec-05 13:46 215 14 gusting 26 7.8
2019-Dec-05 13:40 202 17 gusting 27 7.8
2019-Dec-05 13:36 175 14 gusting 25 7.8
2019-Dec-05 13:31 194 13 gusting 24 7.8
2019-Dec-05 13:25 178 13 gusting 26 7.8
2019-Dec-05 13:20 178 13 gusting 27 7.8
2019-Dec-05 13:17 194 17 gusting 27 7.8
2019-Dec-05 13:10 161 14 gusting 26 7.8
2019-Dec-05 13:05 199 16 gusting 23 7.8
2019-Dec-05 13:01 204 13 gusting 23 7.8
2019-Dec-05 12:55 212 13 gusting 19 7.2
2019-Dec-05 12:50 167 13 gusting 26 7.2
2019-Dec-05 12:45 178 13 gusting 26 7.8
2019-Dec-05 12:40 198 15 gusting 25 7.8
2019-Dec-05 12:35 192 15 gusting 23 7.8
2019-Dec-05 12:31 182 14 gusting 26 7.8
2019-Dec-05 12:25 189 17 gusting 24 7.8
2019-Dec-05 12:20 184 14 gusting 26 7.8
2019-Dec-05 12:16 184 17 gusting 26 7.8
2019-Dec-05 12:10 191 15 gusting 27 7.8
2019-Dec-05 12:05 200 16 gusting 27 7.8
2019-Dec-05 12:01 192 15 gusting 32 7.8
2019-Dec-05 11:55 180 19 gusting 32 7.8
2019-Dec-05 11:50 192 16 gusting 24 7.8
2019-Dec-05 11:40 193 15 gusting 26 7.8
2019-Dec-05 11:35 184 15 gusting 26 7.8
2019-Dec-05 11:30 179 14 gusting 31 7.8
2019-Dec-05 11:25 186 17 gusting 31 7.8
2019-Dec-05 11:20 215 14 gusting 25 7.8
2019-Dec-05 11:15 180 17 gusting 25 7.8
2019-Dec-05 11:10 163 16 gusting 27 7.8
2019-Dec-05 11:05 155 18 gusting 27 7.2
2019-Dec-05 11:00 204 16 gusting 26 7.2
2019-Dec-05 10:55 192 18 gusting 26 7.2
2019-Dec-05 10:50 170 16 gusting 26 7.2
2019-Dec-05 10:46 184 15 gusting 26 7.2
2019-Dec-05 10:40 174 15 gusting 21 7.2
2019-Dec-05 10:35 172 12 gusting 24 7.2
2019-Dec-05 10:30 217 14 gusting 27 7.2
2019-Dec-05 10:25 169 20 gusting 27 7.2
2019-Dec-05 10:20 175 20 gusting 31 7.2
2019-Dec-05 10:15 180 15 gusting 23 6.7
2019-Dec-05 10:10 210 14 gusting 25 6.7
2019-Dec-05 10:05 215 16 gusting 20 6.7
2019-Dec-05 10:00 232 16 gusting 25 6.7
2019-Dec-05 09:55 227 12 gusting 25 6.7
2019-Dec-05 09:50 194 15 gusting 25 6.7
2019-Dec-05 09:45 194 16 gusting 27 6.7
2019-Dec-05 09:40 181 17 gusting 33 6.7
2019-Dec-05 09:35 213 19 gusting 33 7.2
2019-Dec-05 09:25 213 19 gusting 30 6.7
2019-Dec-05 09:20 190 11 gusting 22 6.7
2019-Dec-05 09:15 203 13 gusting 25 7.2
2019-Dec-05 09:10 184 13 gusting 26 6.7
2019-Dec-05 09:05 195 14 gusting 26 7.2
2019-Dec-05 09:00 165 14 gusting 28 7.2
2019-Dec-05 08:55 170 15 gusting 28 7.2
2019-Dec-05 08:50 154 18 gusting 30 7.2
2019-Dec-05 08:45 194 13 gusting 30 6.7
2019-Dec-05 08:40 164 13 gusting 26 6.7
2019-Dec-05 08:35 180 13 gusting 26 6.7
2019-Dec-05 08:30 175 15 gusting 33 6.1
2019-Dec-05 08:25 221 15 gusting 33 6.7
2019-Dec-05 08:15 184 13 gusting 26 6.7
2019-Dec-05 08:10 215 14 gusting 26 6.7
2019-Dec-05 08:00 164 16 gusting 27 7.2
2019-Dec-05 07:55 185 16 gusting 28 6.7
2019-Dec-05 07:50 172 14 gusting 28 6.7
2019-Dec-05 07:40 157 13 gusting 21 6.1
2019-Dec-05 07:35 168 14 gusting 22 6.1
2019-Dec-05 07:30 194 12 gusting 19 6.1
2019-Dec-05 07:25 167 13 gusting 26 5.6
2019-Dec-05 07:20 209 10 gusting 26 5.6
2019-Dec-05 07:10 190 18 gusting 33 6.1
2019-Dec-05 07:05 209 13 gusting 21 6.7
2019-Dec-05 06:55 214 12 gusting 23 6.7
2019-Dec-05 06:45 150 12 gusting 20 6.1
2019-Dec-05 06:40 200 11 gusting 20 6.1
2019-Dec-05 06:35 161 13 gusting 22 6.1
2019-Dec-05 06:30 185 13 gusting 22 5.6
2019-Dec-05 06:25 193 14 gusting 29 5.6
2019-Dec-05 06:20 176 19 gusting 29 6.1
2019-Dec-05 06:10 182 13 gusting 26 6.1
2019-Dec-05 06:05 204 16 gusting 33 6.7
2019-Dec-05 06:00 202 25 gusting 33 7.2
2019-Dec-05 05:55 178 13 gusting 21 7.8
2019-Dec-05 05:50 200 12 gusting 27 7.2
2019-Dec-05 05:35 196 12 gusting 27 7.2
2019-Dec-05 05:32 186 11 gusting 20 7.2
2019-Dec-05 05:26 209 15 gusting 24 7.2
2019-Dec-05 05:20 222 13 gusting 24 7.8
2019-Dec-05 05:16 202 13 gusting 23 7.2
2019-Dec-05 05:11 188 13 gusting 21 7.2
2019-Dec-05 05:06 193 13 gusting 24 7.8
2019-Dec-05 05:03 175 12 gusting 21 7.8
2019-Dec-05 04:55 182 13 gusting 22 7.8
2019-Dec-05 04:51 205 12 gusting 23 7.2
2019-Dec-05 04:46 178 12 gusting 23 7.8
2019-Dec-05 04:41 175 12 gusting 23 7.8
2019-Dec-05 04:35 198 13 gusting 22 7.8
2019-Dec-05 04:31 208 13 gusting 26 7.8
2019-Dec-05 04:25 207 13 gusting 26 7.8
2019-Dec-05 04:21 211 12 gusting 26 7.8
2019-Dec-05 04:17 186 13 gusting 26 7.2
2019-Dec-05 04:10 223 11 gusting 19 7.2
2019-Dec-05 04:05 209 12 gusting 19 7.8
2019-Dec-05 04:01 216 11 gusting 19 7.8
2019-Dec-05 03:55 225 12 gusting 21 7.2
2019-Dec-05 03:50 207 13 gusting 21 7.2
2019-Dec-05 03:47 167 12 gusting 23 7.2
2019-Dec-05 03:40 167 16 gusting 23 7.2
2019-Dec-05 03:35 209 11 gusting 23 7.2
2019-Dec-05 03:31 165 15 gusting 23 7.2
2019-Dec-05 03:25 205 8 gusting 13 7.2
2019-Dec-05 03:20 176 9 gusting 20 7.2
2019-Dec-05 03:17 218 11 gusting 20 7.2
2019-Dec-05 03:10 178 9 gusting 19 6.7
2019-Dec-05 03:05 189 13 gusting 19 7.2
2019-Dec-05 03:01 169 11 gusting 19 7.2
2019-Dec-05 02:55 203 9 gusting 17 7.2
2019-Dec-05 02:50 192 10 gusting 18 7.2
2019-Dec-05 02:46 178 7 gusting 19 7.2
2019-Dec-05 02:40 197 12 gusting 19 7.2
2019-Dec-05 02:35 214 8 gusting 15 7.2
2019-Dec-05 02:31 171 10 gusting 19 7.2
2019-Dec-05 02:25 164 12 gusting 16 7.2
2019-Dec-05 02:20 178 7 gusting 16 6.7
2019-Dec-05 02:17 201 8 gusting 18 6.7
2019-Dec-05 02:10 186 8 gusting 17 6.7
2019-Dec-05 02:05 179 12 gusting 17 6.7
2019-Dec-05 02:01 190 7 gusting 19 6.7
2019-Dec-05 01:55 159 11 gusting 19 7.2
2019-Dec-05 01:50 171 11 gusting 19 7.2
2019-Dec-05 01:45 161 12 gusting 19 7.2
2019-Dec-05 01:40 158 10 gusting 23 7.2
2019-Dec-05 01:35 183 14 gusting 23 7.2
2019-Dec-05 01:31 165 11 gusting 18 7.2
2019-Dec-05 01:25 213 13 gusting 19 7.2
2019-Dec-05 01:20 192 8 gusting 18 7.8
2019-Dec-05 01:16 210 9 gusting 14 7.2
2019-Dec-05 01:10 188 8 gusting 19 7.8
2019-Dec-05 01:05 205 12 gusting 19 7.2
2019-Dec-05 01:00 188 9 gusting 15 7.2
2019-Dec-05 00:55 211 7 gusting 17 7.2
2019-Dec-05 00:50 171 11 gusting 19 7.2
2019-Dec-05 00:45 186 10 gusting 23 7.2
2019-Dec-05 00:40 190 13 gusting 23 7.2
2019-Dec-05 00:35 178 12 gusting 20 7.2
2019-Dec-05 00:31 187 7 gusting 17 7.8
2019-Dec-05 00:25 208 9 gusting 21 7.8
2019-Dec-05 00:20 170 9 gusting 21 7.8
2019-Dec-05 00:15 184 11 gusting 19 7.8
2019-Dec-05 00:10 196 13 gusting 22 7.8
2019-Dec-05 00:05 182 13 gusting 22 7.8
2019-Dec-05 00:00 167 13 gusting 19 7.8
2019-Dec-04 23:55 178 8 gusting 18 7.8
2019-Dec-04 23:50 205 8 gusting 18 7.8
2019-Dec-04 23:40 144 6 gusting 13 7.8
2019-Dec-04 23:30 173 11 gusting 21 8.3
2019-Dec-04 23:25 163 11 gusting 19 7.8
2019-Dec-04 23:20 175 9 gusting 19 7.8
2019-Dec-04 23:10 194 9 gusting 17 7.8
2019-Dec-04 23:05 198 8 gusting 17 7.8
2019-Dec-04 23:00 166 10 gusting 16 8.3
2019-Dec-04 22:55 195 9 gusting 16 8.3
2019-Dec-04 22:50 188 8 gusting 20 8.3
2019-Dec-04 22:45 186 8 gusting 20 8.3
2019-Dec-04 22:40 171 10 gusting 16 8.3
2019-Dec-04 22:35 184 8 gusting 18 8.3
2019-Dec-04 22:25 187 10 gusting 20 8.3
2019-Dec-04 22:20 195 7 gusting 16 8.3
2019-Dec-04 22:10 158 9 gusting 14 8.3
2019-Dec-04 22:05 169 8 gusting 14 8.3
2019-Dec-04 22:00 178 8 gusting 13 7.8
2019-Dec-04 21:55 208 9 gusting 13 8.3
2019-Dec-04 21:50 204 7 gusting 13 8.3
2019-Dec-04 21:45 190 6 gusting 21 8.3
2019-Dec-04 21:36 156 8 gusting 20 7.8
2019-Dec-04 21:32 145 8 gusting 20 7.8
2019-Dec-04 21:30 144 10 gusting 20 7.8
2019-Dec-04 21:21 200 10 gusting 19 7.8
2019-Dec-04 21:16 142 10 gusting 18 7.8
2019-Dec-04 21:11 151 13 gusting 19 7.2
2019-Dec-04 21:06 152 10 gusting 25 7.2
2019-Dec-04 21:02 178 12 gusting 17 7.2
2019-Dec-04 20:56 123 10 gusting 18 7.2
2019-Dec-04 20:50 180 10 gusting 19 7.2
2019-Dec-04 20:47 172 10 gusting 21 6.7
2019-Dec-04 20:40 148 10 gusting 17 6.7
2019-Dec-04 20:36 175 9 gusting 17 6.7
2019-Dec-04 20:32 167 9 gusting 17 6.7
2019-Dec-04 20:25 217 9 gusting 15 7.2
2019-Dec-04 20:20 169 8 gusting 16 7.2
2019-Dec-04 20:11 203 12 gusting 20 7.8
2019-Dec-04 20:05 176 13 gusting 24 7.8
2019-Dec-04 20:02 166 10 gusting 24 7.8
2019-Dec-04 19:55 202 13 gusting 26 7.8
2019-Dec-04 19:50 180 14 gusting 26 7.2
2019-Dec-04 19:46 211 11 gusting 19 7.2
2019-Dec-04 19:40 201 13 gusting 20 7.2
2019-Dec-04 19:35 181 13 gusting 20 7.2
2019-Dec-04 19:31 186 13 gusting 26 7.2
2019-Dec-04 19:25 169 11 gusting 26 7.2
2019-Dec-04 19:20 172 12 gusting 23 7.2
2019-Dec-04 19:16 167 10 gusting 19 7.2
2019-Dec-04 19:10 190 11 gusting 18 7.2
2019-Dec-04 19:05 168 9 gusting 19 7.2
2019-Dec-04 19:01 225 12 gusting 20 7.2
2019-Dec-04 18:55 176 12 gusting 19 7.2
2019-Dec-04 18:50 202 12 gusting 22 7.2
2019-Dec-04 18:46 177 12 gusting 22 7.2
2019-Dec-04 18:40 182 12 gusting 21 7.2
2019-Dec-04 18:35 189 11 gusting 19 7.2
2019-Dec-04 18:32 174 12 gusting 19 7.2
2019-Dec-04 18:25 205 12 gusting 19 7.2
2019-Dec-04 18:20 188 12 gusting 19 7.2
2019-Dec-04 18:16 161 13 gusting 20 7.2
2019-Dec-04 18:10 162 13 gusting 23 7.8
2019-Dec-04 18:05 150 13 gusting 22 7.2
2019-Dec-04 18:01 213 13 gusting 22 7.8
2019-Dec-04 17:55 204 11 gusting 23 7.8
2019-Dec-04 17:50 189 13 gusting 23 7.8
2019-Dec-04 17:45 205 12 gusting 19 7.8
2019-Dec-04 17:40 192 13 gusting 19 7.8
2019-Dec-04 17:35 176 12 gusting 23 7.8
2019-Dec-04 17:31 185 15 gusting 21 7.8
2019-Dec-04 17:25 199 15 gusting 20 8.3
2019-Dec-04 17:20 172 14 gusting 23 8.3
2019-Dec-04 17:16 194 14 gusting 21 7.8
2019-Dec-04 17:10 198 13 gusting 24 7.8
2019-Dec-04 17:05 171 13 gusting 21 7.8
2019-Dec-04 17:01 189 12 gusting 19 7.8
2019-Dec-04 16:55 196 13 gusting 27 7.8
2019-Dec-04 16:50 209 17 gusting 27 7.8
2019-Dec-04 16:45 178 13 gusting 20 7.8
2019-Dec-04 16:40 217 14 gusting 23 7.8
2019-Dec-04 16:35 175 14 gusting 26 7.8
2019-Dec-04 16:31 194 13 gusting 26 7.8
2019-Dec-04 16:25 192 13 gusting 22 7.8
2019-Dec-04 16:20 199 16 gusting 22 8.3
2019-Dec-04 16:16 159 12 gusting 22 8.3
2019-Dec-04 16:10 219 13 gusting 21 8.3
2019-Dec-04 16:06 214 15 gusting 21 8.3
2019-Dec-04 16:00 180 13 gusting 22 8.3
2019-Dec-04 15:55 198 14 gusting 22 8.3
2019-Dec-04 15:50 195 13 gusting 21 8.3
2019-Dec-04 15:35 190 13 gusting 20 8.3
2019-Dec-04 15:30 225 13 gusting 20 8.3
2019-Dec-04 15:25 170 13 gusting 21 7.8
2019-Dec-04 15:20 159 13 gusting 23 7.8
2019-Dec-04 15:15 200 14 gusting 23 7.8
2019-Dec-04 15:10 225 13 gusting 23 7.8
2019-Dec-04 15:05 166 12 gusting 19 7.8
2019-Dec-04 14:55 192 12 gusting 21 7.8
2019-Dec-04 14:50 142 13 gusting 22 7.8
2019-Dec-04 14:45 155 14 gusting 22 7.8
2019-Dec-04 14:40 206 13 gusting 23 7.8
2019-Dec-04 14:35 173 13 gusting 24 7.8
2019-Dec-04 14:30 206 15 gusting 22 7.8
2019-Dec-04 14:25 205 14 gusting 23 7.8
2019-Dec-04 14:20 208 14 gusting 23 7.2
2019-Dec-04 14:15 199 13 gusting 25 7.2
2019-Dec-04 14:10 206 13 gusting 23 7.2
2019-Dec-04 14:03 151 13 gusting 19 7.2
2019-Dec-04 13:56 200 12 gusting 21 7.2
2019-Dec-04 13:51 167 14 gusting 21 7.2
2019-Dec-04 13:47 209 12 gusting 21 7.2
2019-Dec-04 13:41 198 12 gusting 19 7.8
2019-Dec-04 13:35 195 13 gusting 21 7.8
2019-Dec-04 13:31 176 13 gusting 26 8.3
2019-Dec-04 13:25 208 15 gusting 26 8.3
2019-Dec-04 13:20 200 15 gusting 25 8.3
2019-Dec-04 13:17 186 16 gusting 25 8.3
2019-Dec-04 13:10 182 16 gusting 28 8.3
2019-Dec-04 13:06 221 14 gusting 28 8.3
2019-Dec-04 13:01 219 13 gusting 26 8.3
2019-Dec-04 12:56 211 14 gusting 26 8.3
2019-Dec-04 12:50 213 16 gusting 27 8.3
2019-Dec-04 12:46 202 15 gusting 21 8.3
2019-Dec-04 12:41 228 15 gusting 21 8.3
2019-Dec-04 12:35 180 13 gusting 25 7.8
2019-Dec-04 12:32 207 13 gusting 24 7.8
2019-Dec-04 12:25 202 13 gusting 22 8.3
2019-Dec-04 12:20 193 13 gusting 19 8.3
2019-Dec-04 12:16 207 13 gusting 24 8.3
2019-Dec-04 12:10 176 11 gusting 24 8.3
2019-Dec-04 12:05 205 12 gusting 20 8.3
2019-Dec-04 12:01 187 10 gusting 22 7.8
2019-Dec-04 11:55 196 14 gusting 22 7.8
2019-Dec-04 11:50 185 13 gusting 21 7.8
2019-Dec-04 11:47 188 13 gusting 21 8.3
2019-Dec-04 11:40 211 15 gusting 21 8.3
2019-Dec-04 11:35 206 12 gusting 23 7.8
2019-Dec-04 11:31 214 14 gusting 23 7.8
2019-Dec-04 11:25 194 13 gusting 23 7.8
2019-Dec-04 11:20 205 13 gusting 21 7.8
2019-Dec-04 11:16 186 13 gusting 22 7.8
2019-Dec-04 11:10 173 14 gusting 22 7.8
2019-Dec-04 11:05 222 13 gusting 20 7.8
2019-Dec-04 11:01 198 13 gusting 20 7.8
2019-Dec-04 10:55 200 13 gusting 19 7.8
2019-Dec-04 10:50 199 12 gusting 19 7.8
2019-Dec-04 10:45 164 10 gusting 18 7.8
2019-Dec-04 10:40 212 10 gusting 18 7.8
2019-Dec-04 10:35 209 10 gusting 18 7.8
2019-Dec-04 10:30 187 12 gusting 18 7.8
2019-Dec-04 10:25 192 11 gusting 19 7.8
2019-Dec-04 10:20 192 11 gusting 19 7.8
2019-Dec-04 10:16 216 13 gusting 19 7.8
2019-Dec-04 10:10 202 14 gusting 18 7.2
2019-Dec-04 10:05 209 10 gusting 17 7.2
2019-Dec-04 10:01 189 12 gusting 18 7.2
2019-Dec-04 09:55 176 12 gusting 18 7.2
2019-Dec-04 09:50 197 11 gusting 19 7.2
2019-Dec-04 09:46 192 11 gusting 19 7.2
2019-Dec-04 09:40 206 13 gusting 19 7.2
2019-Dec-04 09:35 204 13 gusting 17 7.2
2019-Dec-04 09:31 183 11 gusting 17 7.2
2019-Dec-04 09:25 207 11 gusting 16 7.2
2019-Dec-04 09:20 213 12 gusting 15 7.2
2019-Dec-04 09:15 205 9 gusting 15 7.2
2019-Dec-04 09:10 187 7 gusting 15 7.2
2019-Dec-04 09:05 183 10 gusting 17 7.2
2019-Dec-04 09:00 204 13 gusting 18 7.2
2019-Dec-04 08:55 209 13 gusting 17 7.2
2019-Dec-04 08:50 200 11 gusting 14 7.2
2019-Dec-04 08:45 187 9 gusting 17 7.2
2019-Dec-04 08:40 203 12 gusting 16 7.2
2019-Dec-04 08:35 215 13 gusting 17 7.8
2019-Dec-04 08:30 221 10 gusting 14 7.2
2019-Dec-04 08:25 196 3 gusting 10 7.2
2019-Dec-04 08:20 219 3 gusting 13 7.2
2019-Dec-04 08:15 211 7 gusting 15 7.2
2019-Dec-04 08:10 197 8 gusting 15 7.2
2019-Dec-04 08:05 155 6 gusting 16 7.2
2019-Dec-04 07:55 209 8 gusting 16 7.2
2019-Dec-04 07:50 211 6 gusting 13 6.7
2019-Dec-04 07:45 220 4 gusting 10 6.7
2019-Dec-04 07:40 211 6 gusting 11 6.7
2019-Dec-04 07:35 172 6 gusting 11 6.7
2019-Dec-04 07:25 211 5 gusting 9 6.1
2019-Dec-04 07:20 182 4 gusting 7 6.1
2019-Dec-04 07:15 186 3 gusting 7 6.1
2019-Dec-04 07:10 193 4 gusting 7 6.1
2019-Dec-04 07:05 198 4 gusting 11 6.1
2019-Dec-04 06:55 179 3 gusting 6 6.1
2019-Dec-04 06:50 205 4 gusting 8 6.1
2019-Dec-04 06:45 176 3 gusting 8 6.1
2019-Dec-04 06:40 170 0 gusting 6 6.1
2019-Dec-04 06:35 105 0 gusting 6 6.1
2019-Dec-04 06:25 191 0 gusting 3 6.1
2019-Dec-04 06:20 155 1 gusting 4 5.6
2019-Dec-04 06:15 117 1 gusting 3 6.1
2019-Dec-04 06:10 102 2 gusting 3 6.1
2019-Dec-04 06:05 111 1 gusting 3 6.1
2019-Dec-04 05:56 123 2 gusting 3 5.6
2019-Dec-04 05:51 095 2 gusting 3 5.6
2019-Dec-04 05:47 103 1 gusting 3 6.1
2019-Dec-04 05:41 091 1 gusting 4 6.1
2019-Dec-04 05:36 091 2 gusting 4 6.1
2019-Dec-04 05:32 083 2 gusting 5 6.1
2019-Dec-04 05:26 066 2 gusting 4 5.6
2019-Dec-04 05:20 088 1 gusting 6 5.6
2019-Dec-04 05:17 086 2 gusting 6 5.6
2019-Dec-04 05:10 092 2 gusting 6 5.6
2019-Dec-04 05:05 074 2 gusting 6 5.0
2019-Dec-04 05:02 092 2 gusting 5 5.6
2019-Dec-04 04:56 117 1 gusting 3 5.6
2019-Dec-04 04:50 117 1 gusting 3 5.6
2019-Dec-04 04:47 118 1 gusting 3 5.6
2019-Dec-04 04:40 096 1 gusting 5 5.6
2019-Dec-04 04:35 092 1 gusting 6 6.1
2019-Dec-04 04:32 148 1 gusting 6 6.1
2019-Dec-04 04:25 173 2 gusting 6 6.1
2019-Dec-04 04:20 209 1 gusting 6 6.1
2019-Dec-04 04:16 185 2 gusting 8 6.1
2019-Dec-04 04:10 186 3 gusting 8 5.6
2019-Dec-04 04:05 206 3 gusting 5 6.1
2019-Dec-04 04:01 200 0 gusting 6 5.6
2019-Dec-04 03:55 189 3 gusting 6 5.6
2019-Dec-04 03:50 184 5.6
2019-Dec-04 03:46 223 0 gusting 3 6.1
2019-Dec-04 03:40 216 1 gusting 5 6.1
2019-Dec-04 03:35 197 1 gusting 6 6.1
2019-Dec-04 03:31 202 0 gusting 7 6.1
2019-Dec-04 03:25 180 3 gusting 6 6.1
2019-Dec-04 03:20 198 1 gusting 4 6.1
2019-Dec-04 03:16 153 2 gusting 4 6.1
2019-Dec-04 03:10 220 0 gusting 6 6.1
2019-Dec-04 03:05 192 1 gusting 6 6.1
2019-Dec-04 03:01 201 1 gusting 3 5.6